Flag for U.S.A. Weather past 2 weeks in Ocala, Florida, U.S.A.

Now
52 °F

Clear.


Feels Like: 51 °F
Forecast: 46 / 73 °F
Wind: 3 mph from South

Location: Ocala Municipal

Current Time: Dec 19, 2014 at 9:48:02 PM

Latest Report: Dec 19, 2014 at 9:15 PM


Visibility: 10 mi

Pressure: 30.09 "Hg

Humidity: 62%

Dew point: 39 °F

Location of OcalaLocation

Historic Weather in Ocala — Graph

°F

Ocala temperature yesterday

Maximum temperature yesterday: 66 °F (at 12:50 PM)
Minimum temperature yesterday: 37 °F (at 3:35 AM)
Average temperature yesterday: 48 °F

Past Weeks' High & Low Weather Summary

 TemperatureHumidityPressure
High81 °F (Dec 6, 1:50 PM)94% (Dec 4, 10:35 PM)30.30 "Hg (Dec 4, 10:35 PM)
Low30 °F (Dec 11, 4:35 AM)21% (Dec 14, 1:50 PM)30.02 "Hg (Dec 9, 3:50 PM)
Average51 °F79%30.15 "Hg
* Reported Dec 4 8:15 PM — Dec 19 8:55 PM, Ocala, Weather by CustomWeather, © 2014

Note: Actual official high and low records may vary slightly from our data, if they occured in-between our weather recording intervals... More about our weather records

Advertising

Ocala weather history for previous 24 hours

 ConditionsComfort  
Time TempWeatherWind HumidityBarometerVisibility
8:55 PM
Dec 19
52 °FClear.No wind62%30.09 "Hg10 mi
8:35 PM52 °FClear.No wind67%30.09 "Hg10 mi
8:15 PM54 °FClear.No wind58%30.09 "Hg10 mi
7:55 PM54 °FClear.No wind58%30.09 "Hg10 mi
6:50 PM55 °FClear.No wind55%30.09 "Hg10 mi
5:50 PM61 °FClear.No wind42%30.08 "Hg10 mi
4:50 PM70 °FSunny.No wind27%30.08 "Hg10 mi
3:50 PM70 °FSunny.No wind25%30.08 "Hg10 mi
2:50 PM70 °FSunny.No wind23%30.08 "Hg10 mi
1:50 PM68 °FSunny.No wind28%30.10 "Hg10 mi
12:50 PM66 °FSunny.6 mph35%30.11 "Hg10 mi
11:50 AM63 °FSunny.No wind45%30.14 "Hg10 mi
10:50 AM61 °FSunny.No wind52%30.16 "Hg10 mi
9:50 AM55 °FSunny.No wind67%30.16 "Hg10 mi
8:50 AM52 °FSunny.No wind82%30.16 "Hg10 mi
7:50 AM46 °FSunny.No wind87%30.14 "Hg10 mi
6:50 AM46 °FClear.No wind87%30.11 "Hg10 mi
6:35 AM46 °FClear.No wind87%30.11 "Hg10 mi
6:15 AM46 °FClear.No wind87%30.11 "Hg10 mi
5:55 AM45 °FClear.No wind93%30.11 "Hg10 mi
5:35 AM45 °FClear.No wind81%30.11 "Hg10 mi
5:15 AM45 °FClear.3 mph93%30.10 "Hg10 mi
4:55 AM45 °FClear.No wind87%30.10 "Hg10 mi
4:35 AM46 °FClear.No wind87%30.10 "Hg10 mi
4:15 AM46 °FClear.No wind87%30.10 "Hg10 mi
3:55 AM45 °FClear.No wind93%30.11 "Hg10 mi
3:35 AM45 °FClear.No wind87%30.10 "Hg10 mi
3:15 AM45 °FClear.No wind93%30.11 "Hg10 mi
2:55 AM46 °FClear.No wind87%30.12 "Hg10 mi
2:35 AM46 °FClear.No wind87%30.13 "Hg10 mi
2:15 AM46 °FClear.No wind87%30.13 "Hg10 mi
1:55 AM46 °FClear.No wind87%30.13 "Hg10 mi
1:35 AM48 °FClear.No wind82%30.13 "Hg10 mi
1:15 AM48 °FClear.No wind87%30.13 "Hg10 mi
12:55 AM50 °FClear.3 mph82%30.13 "Hg10 mi
12:35 AM52 °FClear.No wind77%30.14 "Hg10 mi
12:15 AM52 °FClear.3 mph77%30.15 "Hg10 mi
11:55 PM
Dec 18
52 °FClear.No wind77%30.14 "Hg10 mi
11:35 PM50 °FClear.5 mph82%30.15 "Hg10 mi
11:15 PM52 °FClear.No wind77%30.13 "Hg10 mi
10:35 PM52 °FClear.No wind77%30.15 "Hg10 mi
10:15 PM52 °FClear.No wind77%30.15 "Hg10 mi
9:55 PM54 °FClear.No wind72%30.15 "Hg10 mi
9:35 PM54 °FClear.6 mph72%30.15 "Hg10 mi
9:15 PM54 °FClear.6 mph72%30.14 "Hg10 mi
Weather by CustomWeather, © 2014

See weather overviewHow to use our weather pages